Year,Month,Day,Hour,Minute,Value (Times are PST for temperature in C)
2016,08,19,00,00,23.70
2016,08,19,00,01,23.70
2016,08,19,00,02,23.60
2016,08,19,00,03,23.60
2016,08,19,00,04,23.70
2016,08,19,00,05,23.90
2016,08,19,00,06,23.90
2016,08,19,00,07,23.90
2016,08,19,00,08,23.90
2016,08,19,00,09,23.90
2016,08,19,00,10,23.90
2016,08,19,00,11,23.90
2016,08,19,00,12,23.80
2016,08,19,00,13,23.70
2016,08,19,00,14,23.70
2016,08,19,00,15,23.70
2016,08,19,00,16,23.60
2016,08,19,00,17,23.60
2016,08,19,00,18,23.60
2016,08,19,00,19,23.60
2016,08,19,00,20,23.70
2016,08,19,00,21,23.70
2016,08,19,00,22,23.70
2016,08,19,00,23,23.70
2016,08,19,00,24,23.70
2016,08,19,00,25,23.70
2016,08,19,00,26,23.80
2016,08,19,00,27,23.80
2016,08,19,00,28,23.80
2016,08,19,00,29,23.80
2016,08,19,00,30,23.80
2016,08,19,00,31,23.70
2016,08,19,00,32,23.80
2016,08,19,00,33,23.80
2016,08,19,00,34,23.70
2016,08,19,00,35,23.70
2016,08,19,00,36,23.70
2016,08,19,00,37,23.70
2016,08,19,00,38,23.70
2016,08,19,00,39,23.70
2016,08,19,00,40,23.70
2016,08,19,00,41,23.70
2016,08,19,00,42,23.60
2016,08,19,00,43,23.60
2016,08,19,00,44,23.50
2016,08,19,00,45,23.40
2016,08,19,00,46,23.30
2016,08,19,00,47,23.30
2016,08,19,00,48,23.30
2016,08,19,00,49,23.20
2016,08,19,00,50,23.20
2016,08,19,00,51,23.10
2016,08,19,00,52,23.00
2016,08,19,00,53,22.90
2016,08,19,00,54,22.90
2016,08,19,00,55,22.80
2016,08,19,00,56,22.70
2016,08,19,00,57,22.70
2016,08,19,00,58,22.70
2016,08,19,00,59,22.70
2016,08,19,01,00,22.70
2016,08,19,01,01,22.70
2016,08,19,01,02,22.80
2016,08,19,01,03,22.80
2016,08,19,01,04,22.90
2016,08,19,01,05,22.80
2016,08,19,01,06,22.80
2016,08,19,01,07,22.80
2016,08,19,01,08,22.80
2016,08,19,01,09,22.70
2016,08,19,01,10,22.70
2016,08,19,01,11,22.60
2016,08,19,01,12,22.60
2016,08,19,01,13,22.60
2016,08,19,01,14,22.60
2016,08,19,01,15,22.60
2016,08,19,01,16,22.70
2016,08,19,01,17,22.80
2016,08,19,01,18,22.80
2016,08,19,01,19,22.80
2016,08,19,01,20,22.90
2016,08,19,01,21,22.90
2016,08,19,01,22,23.00
2016,08,19,01,23,23.10
2016,08,19,01,24,23.30
2016,08,19,01,25,23.40
2016,08,19,01,26,23.60
2016,08,19,01,27,23.80
2016,08,19,01,28,24.00
2016,08,19,01,29,24.10
2016,08,19,01,30,24.20
2016,08,19,01,31,24.30
2016,08,19,01,32,24.30
2016,08,19,01,33,24.30
2016,08,19,01,34,24.30
2016,08,19,01,35,24.20
2016,08,19,01,36,24.10
2016,08,19,01,37,24.00
2016,08,19,01,38,23.90
2016,08,19,01,39,23.90
2016,08,19,01,40,23.80
2016,08,19,01,41,23.80
2016,08,19,01,42,23.70
2016,08,19,01,43,23.60
2016,08,19,01,44,23.60
2016,08,19,01,45,23.60
2016,08,19,01,46,23.70
2016,08,19,01,47,23.70
2016,08,19,01,48,23.70
2016,08,19,01,49,23.60
2016,08,19,01,50,23.60
2016,08,19,01,51,23.60
2016,08,19,01,52,23.60
2016,08,19,01,53,23.60
2016,08,19,01,54,23.60
2016,08,19,01,55,23.60
2016,08,19,01,56,23.70
2016,08,19,01,57,23.80
2016,08,19,01,58,23.90
2016,08,19,01,59,23.90
2016,08,19,02,00,24.00
2016,08,19,02,01,24.10
2016,08,19,02,02,24.10
2016,08,19,02,03,24.10
2016,08,19,02,04,24.10
2016,08,19,02,05,24.10
2016,08,19,02,06,24.10
2016,08,19,02,07,24.10
2016,08,19,02,08,24.10
2016,08,19,02,09,24.10
2016,08,19,02,10,24.10
2016,08,19,02,11,24.10
2016,08,19,02,12,24.20
2016,08,19,02,13,24.30
2016,08,19,02,14,24.40
2016,08,19,02,15,24.40
2016,08,19,02,16,24.50
2016,08,19,02,17,24.50
2016,08,19,02,18,24.40
2016,08,19,02,19,24.40
2016,08,19,02,20,24.30
2016,08,19,02,21,24.20
2016,08,19,02,22,24.10
2016,08,19,02,23,24.10
2016,08,19,02,24,23.90
2016,08,19,02,25,23.90
2016,08,19,02,26,23.80
2016,08,19,02,27,23.80
2016,08,19,02,28,23.80
2016,08,19,02,29,23.80
2016,08,19,02,30,23.90
2016,08,19,02,31,23.90
2016,08,19,02,32,23.90
2016,08,19,02,33,24.00
2016,08,19,02,34,24.10
2016,08,19,02,35,24.10
2016,08,19,02,36,24.10
2016,08,19,02,37,24.10
2016,08,19,02,38,24.10
2016,08,19,02,39,24.20
2016,08,19,02,40,24.20
2016,08,19,02,41,24.20
2016,08,19,02,42,24.20
2016,08,19,02,43,24.20
2016,08,19,02,44,24.20
2016,08,19,02,45,24.20
2016,08,19,02,46,24.20
2016,08,19,02,47,24.20
2016,08,19,02,48,24.20
2016,08,19,02,49,24.20
2016,08,19,02,50,24.20
2016,08,19,02,51,24.20
2016,08,19,02,52,24.30
2016,08,19,02,53,24.30
2016,08,19,02,54,24.30
2016,08,19,02,55,24.30
2016,08,19,02,56,24.30
2016,08,19,02,57,24.20
2016,08,19,02,58,24.20
2016,08,19,02,59,24.20
2016,08,19,03,00,24.10
2016,08,19,03,01,24.10
2016,08,19,03,02,24.10
2016,08,19,03,03,24.10
2016,08,19,03,04,24.00
2016,08,19,03,05,23.90
2016,08,19,03,06,23.90
2016,08,19,03,07,23.90
2016,08,19,03,08,23.80
2016,08,19,03,09,23.70
2016,08,19,03,10,23.70
2016,08,19,03,11,23.50
2016,08,19,03,12,23.30
2016,08,19,03,13,23.20
2016,08,19,03,14,23.10
2016,08,19,03,15,23.00
2016,08,19,03,16,22.90
2016,08,19,03,17,22.90
2016,08,19,03,18,22.90
2016,08,19,03,19,22.90
2016,08,19,03,20,23.00
2016,08,19,03,21,23.00
2016,08,19,03,22,23.10
2016,08,19,03,23,23.10
2016,08,19,03,24,23.00
2016,08,19,03,25,22.90
2016,08,19,03,26,22.90
2016,08,19,03,27,22.90
2016,08,19,03,28,22.80
2016,08,19,03,29,22.70
2016,08,19,03,30,22.60
2016,08,19,03,31,22.50
2016,08,19,03,32,22.50
2016,08,19,03,33,22.40
2016,08,19,03,34,22.40
2016,08,19,03,35,22.30
2016,08,19,03,36,22.30
2016,08,19,03,37,22.30
2016,08,19,03,38,22.20
2016,08,19,03,39,22.20
2016,08,19,03,40,22.30
2016,08,19,03,41,22.40
2016,08,19,03,42,22.50
2016,08,19,03,43,22.50
2016,08,19,03,44,22.40
2016,08,19,03,45,22.30
2016,08,19,03,46,22.30
2016,08,19,03,47,22.30
2016,08,19,03,48,22.30
2016,08,19,03,49,22.20
2016,08,19,03,50,22.20
2016,08,19,03,51,22.10
2016,08,19,03,52,22.10
2016,08,19,03,53,22.00
2016,08,19,03,54,21.90
2016,08,19,03,55,21.80
2016,08,19,03,56,21.80
2016,08,19,03,57,21.70
2016,08,19,03,58,21.70
2016,08,19,03,59,21.60
2016,08,19,04,00,21.60
2016,08,19,04,01,21.60
2016,08,19,04,02,21.60
2016,08,19,04,03,21.60
2016,08,19,04,04,21.80
2016,08,19,04,05,22.00
2016,08,19,04,06,22.10
2016,08,19,04,07,22.20
2016,08,19,04,08,22.30
2016,08,19,04,09,22.30
2016,08,19,04,10,22.40
2016,08,19,04,11,22.40
2016,08,19,04,12,22.40
2016,08,19,04,13,22.50
2016,08,19,04,14,22.50
2016,08,19,04,15,22.50
2016,08,19,04,16,22.40
2016,08,19,04,17,22.30
2016,08,19,04,18,22.30
2016,08,19,04,19,22.20
2016,08,19,04,20,22.10
2016,08,19,04,21,22.00
2016,08,19,04,22,22.00
2016,08,19,04,23,21.90
2016,08,19,04,24,21.90
2016,08,19,04,25,22.00
2016,08,19,04,26,22.10
2016,08,19,04,27,22.20
2016,08,19,04,28,22.30
2016,08,19,04,29,22.20
2016,08,19,04,30,22.20
2016,08,19,04,31,22.10
2016,08,19,04,32,22.00
2016,08,19,04,33,21.90
2016,08,19,04,34,21.80
2016,08,19,04,35,21.70
2016,08,19,04,36,21.60
2016,08,19,04,37,21.50
2016,08,19,04,38,21.40
2016,08,19,04,39,21.30
2016,08,19,04,40,21.30
2016,08,19,04,41,21.20
2016,08,19,04,42,21.10
2016,08,19,04,43,21.10
2016,08,19,04,44,21.00
2016,08,19,04,45,21.00
2016,08,19,04,46,20.90
2016,08,19,04,47,20.90
2016,08,19,04,48,20.90
2016,08,19,04,49,20.90
2016,08,19,04,50,21.00
2016,08,19,04,51,21.10
2016,08,19,04,52,21.00
2016,08,19,04,53,21.00
2016,08,19,04,54,20.90
2016,08,19,04,55,20.90
2016,08,19,04,56,20.90
2016,08,19,04,57,20.90
2016,08,19,04,58,20.90
2016,08,19,04,59,20.90
2016,08,19,05,00,20.90
2016,08,19,05,01,21.00
2016,08,19,05,02,21.10
2016,08,19,05,03,21.20
2016,08,19,05,04,21.30
2016,08,19,05,05,21.30
2016,08,19,05,06,21.40
2016,08,19,05,07,21.50
2016,08,19,05,08,21.60
2016,08,19,05,09,21.70
2016,08,19,05,10,21.70
2016,08,19,05,11,21.70
2016,08,19,05,12,21.70
2016,08,19,05,13,21.70
2016,08,19,05,14,21.70
2016,08,19,05,15,21.70
2016,08,19,05,16,21.60
2016,08,19,05,17,21.60
2016,08,19,05,18,21.60
2016,08,19,05,19,21.60
2016,08,19,05,20,21.60
2016,08,19,05,21,21.40
2016,08,19,05,22,21.40
2016,08,19,05,23,21.30
2016,08,19,05,24,21.30
2016,08,19,05,25,21.30
2016,08,19,05,26,21.30
2016,08,19,05,27,21.30
2016,08,19,05,28,21.30
2016,08,19,05,29,21.30
2016,08,19,05,30,21.30
2016,08,19,05,31,21.30
2016,08,19,05,32,21.30
2016,08,19,05,33,21.30
2016,08,19,05,34,21.30
2016,08,19,05,35,21.30
2016,08,19,05,36,21.30
2016,08,19,05,37,21.30
2016,08,19,05,38,21.30
2016,08,19,05,39,21.20
2016,08,19,05,40,21.10
2016,08,19,05,41,21.20
2016,08,19,05,42,21.20
2016,08,19,05,43,21.30
2016,08,19,05,44,21.30
2016,08,19,05,45,21.50
2016,08,19,05,46,21.70
2016,08,19,05,47,21.80
2016,08,19,05,48,21.80
2016,08,19,05,49,21.80
2016,08,19,05,50,22.00
2016,08,19,05,51,22.30
2016,08,19,05,52,22.40
2016,08,19,05,53,22.40
2016,08,19,05,54,22.40
2016,08,19,05,55,22.30
2016,08,19,05,56,22.30
2016,08,19,05,57,22.30
2016,08,19,05,58,22.30
2016,08,19,05,59,22.30
2016,08,19,06,00,22.20
2016,08,19,06,01,22.10
2016,08,19,06,02,22.00
2016,08,19,06,03,21.90
2016,08,19,06,04,21.80
2016,08,19,06,05,21.90
2016,08,19,06,06,21.90
2016,08,19,06,07,21.90
2016,08,19,06,08,21.80
2016,08,19,06,09,21.80
2016,08,19,06,10,21.80
2016,08,19,06,11,21.70
2016,08,19,06,12,21.70
2016,08,19,06,13,21.70
2016,08,19,06,14,21.70
2016,08,19,06,15,21.70
2016,08,19,06,16,21.70
2016,08,19,06,17,21.80
2016,08,19,06,18,21.90
2016,08,19,06,19,21.90
2016,08,19,06,20,21.90
2016,08,19,06,21,21.80
2016,08,19,06,22,21.80
2016,08,19,06,23,21.70
2016,08,19,06,24,21.60
2016,08,19,06,25,21.60
2016,08,19,06,26,21.60
2016,08,19,06,27,21.60
2016,08,19,06,28,21.60
2016,08,19,06,29,21.60
2016,08,19,06,30,21.70
2016,08,19,06,31,21.70
2016,08,19,06,32,21.70
2016,08,19,06,33,21.70
2016,08,19,06,34,21.70
2016,08,19,06,35,21.80
2016,08,19,06,36,21.90
2016,08,19,06,37,22.10
2016,08,19,06,38,22.20
2016,08,19,06,39,22.20
2016,08,19,06,40,22.20
2016,08,19,06,41,22.20
2016,08,19,06,42,22.10
2016,08,19,06,43,22.10
2016,08,19,06,44,22.00
2016,08,19,06,45,22.00
2016,08,19,06,46,21.90
2016,08,19,06,47,21.90
2016,08,19,06,48,21.80
2016,08,19,06,49,21.80
2016,08,19,06,50,21.70
2016,08,19,06,51,21.70
2016,08,19,06,52,21.70
2016,08,19,06,53,21.70
2016,08,19,06,54,21.70
2016,08,19,06,55,21.70
2016,08,19,06,56,21.80
2016,08,19,06,57,22.00
2016,08,19,06,58,22.00
2016,08,19,06,59,22.10
2016,08,19,07,00,22.20
2016,08,19,07,01,22.20
2016,08,19,07,02,22.30
2016,08,19,07,03,22.40
2016,08,19,07,04,22.40
2016,08,19,07,05,22.40
2016,08,19,07,06,22.50
2016,08,19,07,07,22.50
2016,08,19,07,08,22.50
2016,08,19,07,09,22.50
2016,08,19,07,10,22.50
2016,08,19,07,11,22.60
2016,08,19,07,12,22.60
2016,08,19,07,13,22.60
2016,08,19,07,14,22.60
2016,08,19,07,15,22.70
2016,08,19,07,16,22.70
2016,08,19,07,17,22.70
2016,08,19,07,18,22.80
2016,08,19,07,19,22.80
2016,08,19,07,20,22.80
2016,08,19,07,21,22.80
2016,08,19,07,22,22.80
2016,08,19,07,23,22.80
2016,08,19,07,24,22.80
2016,08,19,07,25,22.80
2016,08,19,07,26,22.80
2016,08,19,07,27,22.90
2016,08,19,07,28,22.90
2016,08,19,07,29,22.90
2016,08,19,07,30,23.10
2016,08,19,07,31,23.10
2016,08,19,07,32,23.30
2016,08,19,07,33,23.40
2016,08,19,07,34,23.60
2016,08,19,07,35,23.70
2016,08,19,07,36,23.80
2016,08,19,07,37,23.90
2016,08,19,07,38,24.00
2016,08,19,07,39,24.10
2016,08,19,07,40,24.10
2016,08,19,07,41,24.10
2016,08,19,07,42,24.10
2016,08,19,07,43,24.10
2016,08,19,07,44,24.10
2016,08,19,07,45,24.10
2016,08,19,07,46,24.00
2016,08,19,07,47,23.90
2016,08,19,07,48,23.90
2016,08,19,07,49,23.90
2016,08,19,07,50,23.90
2016,08,19,07,51,24.00
2016,08,19,07,52,24.10
2016,08,19,07,53,24.10
2016,08,19,07,54,24.30
2016,08,19,07,55,24.40
2016,08,19,07,56,24.50
2016,08,19,07,57,24.60
2016,08,19,07,58,24.70
2016,08,19,07,59,24.70
2016,08,19,08,00,24.70
2016,08,19,08,01,24.70
2016,08,19,08,02,24.60
2016,08,19,08,03,24.60
2016,08,19,08,04,24.70
2016,08,19,08,05,24.70
2016,08,19,08,06,24.70
2016,08,19,08,07,24.70
2016,08,19,08,08,24.70
2016,08,19,08,09,24.70
2016,08,19,08,10,24.70
2016,08,19,08,11,24.80
2016,08,19,08,12,24.80
2016,08,19,08,13,24.90
2016,08,19,08,14,24.90
2016,08,19,08,15,24.90
2016,08,19,08,16,24.80
2016,08,19,08,17,24.80
2016,08,19,08,18,24.90
2016,08,19,08,19,24.90
2016,08,19,08,20,24.90
2016,08,19,08,21,24.90
2016,08,19,08,22,25.00
2016,08,19,08,23,25.10
2016,08,19,08,24,25.10
2016,08,19,08,25,25.10
2016,08,19,08,26,25.10
2016,08,19,08,27,25.10
2016,08,19,08,28,25.00
2016,08,19,08,29,25.00
2016,08,19,08,30,24.90
2016,08,19,08,31,24.90
2016,08,19,08,32,24.80
2016,08,19,08,33,24.80
2016,08,19,08,34,24.80
2016,08,19,08,35,24.80
2016,08,19,08,36,24.80
2016,08,19,08,37,24.80
2016,08,19,08,38,24.80
2016,08,19,08,39,24.70
2016,08,19,08,40,24.60
2016,08,19,08,41,24.60
2016,08,19,08,42,24.50
2016,08,19,08,43,24.40
2016,08,19,08,44,24.50
2016,08,19,08,45,24.50
2016,08,19,08,46,24.40
2016,08,19,08,47,24.30
2016,08,19,08,48,24.30
2016,08,19,08,49,24.30
2016,08,19,08,50,24.30
2016,08,19,08,51,24.30
2016,08,19,08,52,24.40
2016,08,19,08,53,24.40
2016,08,19,08,54,24.30
2016,08,19,08,55,24.40
2016,08,19,08,56,24.40
2016,08,19,08,57,24.50
2016,08,19,08,58,24.40
2016,08,19,08,59,24.40
2016,08,19,09,00,24.40
2016,08,19,09,01,24.40
2016,08,19,09,02,24.50
2016,08,19,09,03,24.50
2016,08,19,09,04,24.60
2016,08,19,09,05,24.60
2016,08,19,09,06,24.70
2016,08,19,09,07,24.80
2016,08,19,09,08,24.80
2016,08,19,09,09,24.90
2016,08,19,09,10,24.90
2016,08,19,09,11,25.00
2016,08,19,09,12,25.10
2016,08,19,09,13,25.20
2016,08,19,09,14,25.20
2016,08,19,09,15,25.20
2016,08,19,09,16,25.20
2016,08,19,09,17,25.30
2016,08,19,09,18,25.40
2016,08,19,09,19,25.50
2016,08,19,09,20,25.60
2016,08,19,09,21,25.70
2016,08,19,09,22,25.80
2016,08,19,09,23,25.90
2016,08,19,09,24,25.80
2016,08,19,09,25,25.80
2016,08,19,09,26,25.80
2016,08,19,09,27,25.80
2016,08,19,09,28,25.80
2016,08,19,09,29,25.80
2016,08,19,09,30,25.80
2016,08,19,09,31,25.70
2016,08,19,09,32,25.70
2016,08,19,09,33,25.70
2016,08,19,09,34,25.60
2016,08,19,09,35,25.60
2016,08,19,09,36,25.60
2016,08,19,09,37,25.60
2016,08,19,09,38,25.70
2016,08,19,09,39,25.80
2016,08,19,09,40,25.90
2016,08,19,09,41,25.90
2016,08,19,09,42,25.90
2016,08,19,09,43,25.90
2016,08,19,09,44,25.90
2016,08,19,09,45,26.00
2016,08,19,09,46,26.10
2016,08,19,09,47,26.10
2016,08,19,09,48,26.00
2016,08,19,09,49,26.00
2016,08,19,09,50,26.10
2016,08,19,09,51,26.20
2016,08,19,09,52,26.30
2016,08,19,09,53,26.40
2016,08,19,09,54,26.40
2016,08,19,09,55,26.50
2016,08,19,09,56,26.50
2016,08,19,09,57,26.40
2016,08,19,09,58,26.30
2016,08,19,09,59,26.10
2016,08,19,10,00,26.00
2016,08,19,10,01,25.90
2016,08,19,10,02,25.90
2016,08,19,10,03,25.90
2016,08,19,10,04,25.90
2016,08,19,10,05,25.80
2016,08,19,10,06,25.70
2016,08,19,10,07,25.60
2016,08,19,10,08,25.60
2016,08,19,10,09,25.60
2016,08,19,10,10,25.60
2016,08,19,10,11,25.60
2016,08,19,10,12,25.70
2016,08,19,10,13,25.70
2016,08,19,10,14,25.50
2016,08,19,10,15,25.40
2016,08,19,10,16,25.40
2016,08,19,10,17,25.40
2016,08,19,10,18,25.40
2016,08,19,10,19,25.50
2016,08,19,10,20,25.60
2016,08,19,10,21,25.60
2016,08,19,10,22,25.60
2016,08,19,10,23,25.60
2016,08,19,10,24,25.60
2016,08,19,10,25,25.60
2016,08,19,10,26,25.60
2016,08,19,10,27,25.40
2016,08,19,10,28,25.30
2016,08,19,10,29,25.20
2016,08,19,10,30,25.30
2016,08,19,10,31,25.40
2016,08,19,10,32,25.30
2016,08,19,10,33,25.20
2016,08,19,10,34,25.10
2016,08,19,10,35,24.90
2016,08,19,10,36,24.80
2016,08,19,10,37,24.80
2016,08,19,10,38,24.70
2016,08,19,10,39,24.70
2016,08,19,10,40,24.70
2016,08,19,10,41,24.70
2016,08,19,10,42,24.70
2016,08,19,10,43,24.70
2016,08,19,10,44,24.70
2016,08,19,10,45,24.70
2016,08,19,10,46,24.70
2016,08,19,10,47,24.80
2016,08,19,10,48,25.00
2016,08,19,10,49,25.00
2016,08,19,10,50,25.10
2016,08,19,10,51,25.20
2016,08,19,10,52,25.30
2016,08,19,10,53,25.40
2016,08,19,10,54,25.40
2016,08,19,10,55,25.30
2016,08,19,10,56,25.30
2016,08,19,10,57,25.30
2016,08,19,10,58,25.10
2016,08,19,10,59,25.00
2016,08,19,11,00,24.90
2016,08,19,11,01,24.90
2016,08,19,11,02,24.90
2016,08,19,11,03,24.90
2016,08,19,11,04,24.80
2016,08,19,11,05,24.90
2016,08,19,11,06,25.00
2016,08,19,11,07,25.10
2016,08,19,11,08,25.10
2016,08,19,11,09,25.20
2016,08,19,11,10,25.20
2016,08,19,11,11,25.20
2016,08,19,11,12,25.30
2016,08,19,11,13,25.30
2016,08,19,11,14,25.30
2016,08,19,11,15,25.20
2016,08,19,11,16,25.10
2016,08,19,11,17,25.10
2016,08,19,11,18,25.10
2016,08,19,11,19,25.00
2016,08,19,11,20,24.90
2016,08,19,11,21,25.00
2016,08,19,11,22,25.10
2016,08,19,11,23,25.20
2016,08,19,11,24,25.20
2016,08,19,11,25,25.30
2016,08,19,11,26,25.40
2016,08,19,11,27,25.50
2016,08,19,11,28,25.50
2016,08,19,11,29,25.50
2016,08,19,11,30,25.40
2016,08,19,11,31,25.40
2016,08,19,11,32,25.30
2016,08,19,11,33,25.10
2016,08,19,11,34,25.00
2016,08,19,11,35,24.90
2016,08,19,11,36,24.90
2016,08,19,11,37,25.00
2016,08,19,11,38,25.10
2016,08,19,11,39,25.20
2016,08,19,11,40,25.10
2016,08,19,11,41,25.00
2016,08,19,11,42,25.00
2016,08,19,11,43,25.00
2016,08,19,11,44,25.10
2016,08,19,11,45,25.20
2016,08,19,11,46,25.10
2016,08,19,11,47,25.10
2016,08,19,11,48,25.10
2016,08,19,11,49,25.20
2016,08,19,11,50,25.10
2016,08,19,11,51,25.20
2016,08,19,11,52,25.20
2016,08,19,11,53,25.10
2016,08,19,11,54,25.20
2016,08,19,11,55,25.30
2016,08,19,11,56,25.20
2016,08,19,11,57,25.20
2016,08,19,11,58,25.20
2016,08,19,11,59,25.20
2016,08,19,12,00,25.20
2016,08,19,12,01,25.20
2016,08,19,12,02,25.20
2016,08,19,12,03,25.10
2016,08,19,12,04,25.20
2016,08,19,12,05,25.30
2016,08,19,12,06,25.30
2016,08,19,12,07,25.40
2016,08,19,12,08,25.30
2016,08,19,12,09,25.30
2016,08,19,12,10,25.40
2016,08,19,12,11,25.50
2016,08,19,12,12,25.60
2016,08,19,12,13,25.70
2016,08,19,12,14,25.80
2016,08,19,12,15,25.90
2016,08,19,12,16,25.90
2016,08,19,12,17,25.90
2016,08,19,12,18,26.00
2016,08,19,12,19,26.20
2016,08,19,12,20,26.30
2016,08,19,12,21,26.40
2016,08,19,12,22,26.50
2016,08,19,12,23,26.60
2016,08,19,12,24,26.60
2016,08,19,12,25,26.70
2016,08,19,12,26,26.80
2016,08,19,12,27,26.90
2016,08,19,12,28,27.10
2016,08,19,12,29,27.10
2016,08,19,12,30,27.10
2016,08,19,12,31,27.10
2016,08,19,12,32,27.10
2016,08,19,12,33,27.10
2016,08,19,12,34,27.10
2016,08,19,12,35,27.20
2016,08,19,12,36,27.20
2016,08,19,12,37,27.20
2016,08,19,12,38,27.30
2016,08,19,12,39,27.30
2016,08,19,12,40,27.40
2016,08,19,12,41,27.40
2016,08,19,12,42,27.60
2016,08,19,12,43,27.60
2016,08,19,12,44,27.60
2016,08,19,12,45,27.70
2016,08,19,12,46,27.70
2016,08,19,12,47,27.60
2016,08,19,12,48,27.60
2016,08,19,12,49,27.60
2016,08,19,12,50,27.60
2016,08,19,12,51,27.70
2016,08,19,12,52,27.60
2016,08,19,12,53,27.60
2016,08,19,12,54,27.60
2016,08,19,12,55,27.50
2016,08,19,12,56,27.40
2016,08,19,12,57,27.40
2016,08,19,12,58,27.40
2016,08,19,12,59,27.30
2016,08,19,13,00,27.30
2016,08,19,13,01,27.20
2016,08,19,13,02,27.20
2016,08,19,13,03,27.20
2016,08,19,13,04,27.20
2016,08,19,13,05,27.20
2016,08,19,13,06,27.20
2016,08,19,13,07,27.10
2016,08,19,13,08,27.10
2016,08,19,13,09,27.00
2016,08,19,13,10,26.90
2016,08,19,13,11,26.90
2016,08,19,13,12,27.00
2016,08,19,13,13,27.10
2016,08,19,13,14,27.10
2016,08,19,13,15,27.20
2016,08,19,13,16,27.20
2016,08,19,13,17,27.30
2016,08,19,13,18,27.30
2016,08,19,13,19,27.30
2016,08,19,13,20,27.30
2016,08,19,13,21,27.20
2016,08,19,13,22,27.20
2016,08,19,13,23,27.20
2016,08,19,13,24,27.20
2016,08,19,13,25,27.20
2016,08,19,13,26,27.20
2016,08,19,13,27,27.10
2016,08,19,13,28,27.00
2016,08,19,13,29,26.90
2016,08,19,13,30,27.00
2016,08,19,13,31,27.10
2016,08,19,13,32,27.10
2016,08,19,13,33,27.20
2016,08,19,13,34,27.30
2016,08,19,13,35,27.30
2016,08,19,13,36,27.30
2016,08,19,13,37,27.30
2016,08,19,13,38,27.30
2016,08,19,13,39,27.30
2016,08,19,13,40,27.40
2016,08,19,13,41,27.40
2016,08,19,13,42,27.60
2016,08,19,13,43,27.60
2016,08,19,13,44,27.60
2016,08,19,13,45,27.70
2016,08,19,13,46,27.70
2016,08,19,13,47,27.80
2016,08,19,13,48,27.90
2016,08,19,13,49,28.00
2016,08,19,13,50,28.10
2016,08,19,13,51,28.20
2016,08,19,13,52,28.20
2016,08,19,13,53,28.10
2016,08,19,13,54,28.00
2016,08,19,13,55,28.00
2016,08,19,13,56,28.00
2016,08,19,13,57,28.00
2016,08,19,13,58,28.00
2016,08,19,13,59,28.00
2016,08,19,14,00,28.00
2016,08,19,14,01,27.90
2016,08,19,14,02,27.80
2016,08,19,14,03,27.70
2016,08,19,14,04,27.60
2016,08,19,14,05,27.40
2016,08,19,14,06,27.30
2016,08,19,14,07,27.30
2016,08,19,14,08,27.40
2016,08,19,14,09,27.50
2016,08,19,14,10,27.60
2016,08,19,14,11,27.60
2016,08,19,14,12,27.60
2016,08,19,14,13,27.60
2016,08,19,14,14,27.60
2016,08,19,14,15,27.70
2016,08,19,14,16,27.80
2016,08,19,14,17,27.90
2016,08,19,14,18,27.90
2016,08,19,14,19,27.90
2016,08,19,14,20,27.90
2016,08,19,14,21,27.90
2016,08,19,14,22,27.90
2016,08,19,14,23,28.00
2016,08,19,14,24,28.00
2016,08,19,14,25,27.90
2016,08,19,14,26,27.90
2016,08,19,14,27,27.90
2016,08,19,14,28,27.90
2016,08,19,14,29,28.00
2016,08,19,14,30,28.00
2016,08,19,14,31,28.10
2016,08,19,14,32,28.20
2016,08,19,14,33,28.20
2016,08,19,14,34,28.20
2016,08,19,14,35,28.20
2016,08,19,14,36,28.20
2016,08,19,14,37,28.20
2016,08,19,14,38,28.10
2016,08,19,14,39,28.10
2016,08,19,14,40,28.00
2016,08,19,14,41,28.00
2016,08,19,14,42,28.00
2016,08,19,14,43,28.10
2016,08,19,14,44,28.10
2016,08,19,14,45,28.20
2016,08,19,14,46,28.30
2016,08,19,14,47,28.40
2016,08,19,14,48,28.60
2016,08,19,14,49,28.70
2016,08,19,14,50,28.80
2016,08,19,14,51,28.80
2016,08,19,14,52,28.80
2016,08,19,14,53,28.80
2016,08,19,14,54,28.80
2016,08,19,14,55,28.80
2016,08,19,14,56,28.90
2016,08,19,14,57,28.90
2016,08,19,14,58,28.90
2016,08,19,14,59,28.90
2016,08,19,15,00,28.90
2016,08,19,15,01,28.90
2016,08,19,15,02,28.90
2016,08,19,15,03,28.90
2016,08,19,15,04,29.10
2016,08,19,15,05,29.00
2016,08,19,15,06,28.90
2016,08,19,15,07,29.00
2016,08,19,15,08,29.10
2016,08,19,15,09,29.20
2016,08,19,15,10,29.30
2016,08,19,15,11,29.30
2016,08,19,15,12,29.30
2016,08,19,15,13,29.20
2016,08,19,15,14,29.20
2016,08,19,15,15,29.30
2016,08,19,15,16,29.30
2016,08,19,15,17,29.20
2016,08,19,15,18,29.20
2016,08,19,15,19,29.10
2016,08,19,15,20,29.10
2016,08,19,15,21,29.10
2016,08,19,15,22,29.20
2016,08,19,15,23,29.20
2016,08,19,15,24,29.10
2016,08,19,15,25,29.10
2016,08,19,15,26,29.10
2016,08,19,15,27,29.10
2016,08,19,15,28,29.10
2016,08,19,15,29,29.10
2016,08,19,15,30,29.10
2016,08,19,15,31,29.00
2016,08,19,15,32,28.90
2016,08,19,15,33,28.90
2016,08,19,15,34,28.90
2016,08,19,15,35,28.90
2016,08,19,15,36,28.90
2016,08,19,15,37,28.90
2016,08,19,15,38,28.80
2016,08,19,15,39,28.70
2016,08,19,15,40,28.70
2016,08,19,15,41,28.60
2016,08,19,15,42,28.50
2016,08,19,15,43,28.30
2016,08,19,15,44,28.30
2016,08,19,15,45,28.20
2016,08,19,15,46,28.20
2016,08,19,15,47,28.20
2016,08,19,15,48,28.10
2016,08,19,15,49,28.10
2016,08,19,15,50,28.00
2016,08,19,15,51,27.90
2016,08,19,15,52,27.80
2016,08,19,15,53,27.80
2016,08,19,15,54,27.80
2016,08,19,15,55,27.70
2016,08,19,15,56,27.70
2016,08,19,15,57,27.70
2016,08,19,15,58,27.60
2016,08,19,15,59,27.70
2016,08,19,16,00,27.70
2016,08,19,16,01,27.70
2016,08,19,16,02,27.80
2016,08,19,16,03,27.80
2016,08,19,16,04,27.80
2016,08,19,16,05,27.80
2016,08,19,16,06,27.80
2016,08,19,16,07,27.80
2016,08,19,16,08,27.80
2016,08,19,16,09,27.70
2016,08,19,16,10,27.70
2016,08,19,16,11,27.70
2016,08,19,16,12,27.70
2016,08,19,16,13,27.70
2016,08,19,16,14,27.70
2016,08,19,16,15,27.80
2016,08,19,16,16,27.90
2016,08,19,16,17,27.90
2016,08,19,16,18,27.90
2016,08,19,16,19,27.90
2016,08,19,16,20,27.80
2016,08,19,16,21,27.80
2016,08,19,16,22,27.70
2016,08,19,16,23,27.70
2016,08,19,16,24,27.70
2016,08,19,16,25,27.70
2016,08,19,16,26,27.70
2016,08,19,16,27,27.70
2016,08,19,16,28,27.70
2016,08,19,16,29,27.60
2016,08,19,16,30,27.60
2016,08,19,16,31,27.60
2016,08,19,16,32,27.60
2016,08,19,16,33,27.70
2016,08,19,16,34,27.60
2016,08,19,16,35,27.60
2016,08,19,16,36,27.60
2016,08,19,16,37,27.70
2016,08,19,16,38,27.70
2016,08,19,16,39,27.80
2016,08,19,16,40,27.80
2016,08,19,16,41,27.80
2016,08,19,16,42,27.80
2016,08,19,16,43,27.80
2016,08,19,16,44,27.80
2016,08,19,16,45,27.90
2016,08,19,16,46,27.90
2016,08,19,16,47,27.90
2016,08,19,16,48,27.90
2016,08,19,16,49,27.90
2016,08,19,16,50,27.90
2016,08,19,16,51,27.90
2016,08,19,16,52,28.00
2016,08,19,16,53,28.00
2016,08,19,16,54,28.00
2016,08,19,16,55,28.00
2016,08,19,16,56,28.10
2016,08,19,16,57,28.10
2016,08,19,16,58,28.10
2016,08,19,16,59,28.10
2016,08,19,17,00,28.20
2016,08,19,17,01,28.20
2016,08,19,17,02,28.20
2016,08,19,17,03,28.30
2016,08,19,17,04,28.30
2016,08,19,17,05,28.30
2016,08,19,17,06,28.30
2016,08,19,17,07,28.30
2016,08,19,17,08,28.20
2016,08,19,17,09,28.20
2016,08,19,17,10,28.20
2016,08,19,17,11,28.20
2016,08,19,17,12,28.30
2016,08,19,17,13,28.30
2016,08,19,17,14,28.30
2016,08,19,17,15,28.30
2016,08,19,17,16,28.20
2016,08,19,17,17,28.10
2016,08,19,17,18,28.10
2016,08,19,17,19,28.00